Home > Weather > Corpus Christi > Past weeks

Flag for USA Past Weather in Corpus Christi, Texas, USA — Yesterday and Last 2 Weeks

Now
86 °F

Cloudy.


Feels Like: 97 °F
Forecast: 79 / 89 °F
Wind: 16 mph from Southeast

Location: Corpus Christi International Airport

Current Time: May 24, 2016 at 4:45:30 PM

Latest Report: May 24, 2016 at 3:51 PM


Visibility: 10 mi

Pressure: 29.89 "Hg

Humidity: 75%

Dew Point: 77 °F

Location of Corpus ChristiLocation

Past Weather in Corpus Christi — Graph

°F

Corpus Christi Temperature Yesterday

Maximum temperature yesterday: 86 °F (at 3:51 PM)
Minimum temperature yesterday: 77 °F (at 12:51 AM)
Average temperature yesterday: 81 °F

High & Low Weather Summary for the Past Weeks

 TemperatureHumidityPressure
High90 °F (May 13, 2:51 PM)97% (May 16, 2:51 AM)30.14 "Hg (May 16, 2:51 AM)
Low68 °F (May 19, 1:51 PM)50% (May 11, 2:51 PM)29.73 "Hg (May 9, 7:51 PM)
Average79 °F80%29.92 "Hg
* Reported May 9 2:51 PM — May 24 2:51 PM, Corpus Christi, Weather by CustomWeather, © 2016

Note: Actual official high and low records may vary slightly from our data, if they occured in-between our weather recording intervals... More about our weather records

Advertising

Corpus Christi Weather History for the Previous 24 Hours

Scroll right to see more
 ConditionsComfort  
Time TempWeatherWind HumidityBarometerVisibility
2:51 PM
Tue, May 24
87 °FBroken clouds.20 mph69%29.90 "Hg10 mi
1:51 PM87 °FBroken clouds.15 mph72%29.90 "Hg10 mi
12:51 PM86 °FBroken clouds.18 mph75%29.91 "Hg10 mi
11:51 AM86 °FBroken clouds.21 mph77%29.90 "Hg9 mi
10:51 AM85 °FBroken clouds.14 mph80%29.90 "Hg9 mi
9:51 AM83 °FBroken clouds.16 mph82%29.90 "Hg10 mi
8:51 AM82 °FBroken clouds.15 mph85%29.89 "Hg10 mi
7:51 AM81 °FPartly sunny.12 mph85%29.87 "Hg10 mi
6:51 AM80 °FMostly cloudy.12 mph87%29.86 "Hg9 mi
5:51 AM80 °FMostly cloudy.12 mph87%29.83 "Hg10 mi
4:51 AM79 °FPartly cloudy.9 mph90%29.82 "Hg10 mi
3:51 AM79 °FMostly cloudy.6 mph90%29.85 "Hg10 mi
2:51 AM79 °FPartly cloudy.7 mph90%29.85 "Hg10 mi
1:51 AM79 °FMostly cloudy.8 mph88%29.88 "Hg10 mi
12:51 AM80 °FOvercast.9 mph85%29.88 "Hg10 mi
11:51 PM
Mon, May 23
80 °FMostly cloudy.12 mph85%29.86 "Hg10 mi
11:02 PM80 °FMostly cloudy.14 mph85%29.85 "Hg10 mi
10:51 PM80 °FMostly cloudy.17 mph85%29.85 "Hg10 mi
9:51 PM80 °FOvercast.12 mph85%29.85 "Hg10 mi
8:51 PM81 °FOvercast.15 mph82%29.84 "Hg10 mi
7:51 PM81 °FLight rain. Cloudy.17 mph82%29.80 "Hg10 mi
6:51 PM82 °FCloudy.18 mph79%29.80 "Hg10 mi
5:51 PM84 °FBroken clouds.17 mph77%29.80 "Hg9 mi
4:51 PM85 °FBroken clouds.22 mph77%29.80 "Hg9 mi
Weather by CustomWeather, © 2016

See weather overviewHow to use our weather pages